Tracking 28915 objects as of 30-May-2024
HD Live streaming from Space Station
objects crossing your sky now

SKYKRAFT-3B

Track SKYKRAFT-3B now!
10-day predictions
SKYKRAFT-3B is classified as:


NORAD ID: 56227
Int'l Code: 2023-084BL
Perigee: 470.2 km
Apogee: 479.5 km
Inclination: 97.5 °
Period: 94.0 minutes
Semi major axis: 6845 km
RCS: Unknown
Launch date: June 12, 2023
Source: Australia (AUS)
Launch site: AIR FORCE WESTERN TEST RANGE (AFWTR)

Uplink (MHz):
Downlink (MHz): 437.250
Beacon (MHz):
Mode: LoRa
Call sign:
Status: Unknown

Your satellite tracking list
Your tracking list is empty




NASA's NSSDC Master Catalog

Two Line Element Set (TLE):
1 56227U 23084BL  24151.14740932  .00035229  00000-0  11129-2 0  9999
2 56227  97.5354 272.0700 0006806  69.5014 290.6957 15.32717158 53534
Source of the keplerian elements: AFSPC